This is the latest recevied weather packets stored in our database for station/object KE5VT. If no packets are shown the sender has not sent any weather packets the latest 10 day(s).
| Time | Temp. | Humidity | Pressure | Rain* | Wind** | Luminosity | Snow |
|---|---|---|---|---|---|---|---|
| 1777229436 | 21.67° C | 78% | 1009.9 hPa | 0 mm | - | 144 W/m² | - |
| 1777229133 | 21.11° C | 77% | 1010 hPa | 0 mm | - | 286 W/m² | - |
| 1777228830 | 21.11° C | 78% | 1010 hPa | 0 mm | - | 287 W/m² | - |
| 1777228525 | 21.11° C | 80% | 1010 hPa | 0 mm | - | 499 W/m² | - |
| 1777228222 | 20.56° C | 79% | 1010.1 hPa | 0 mm | - | 263 W/m² | - |
| 1777227921 | 20.56° C | 79% | 1010.3 hPa | 0 mm | - | 720 W/m² | - |
| 1777227617 | 20° C | 82% | 1010.2 hPa | 0 mm | - | 416 W/m² | - |
| 1777227312 | 20° C | 82% | 1010.1 hPa | 0 mm | - | 158 W/m² | - |
| 1777227010 | 20° C | 81% | 1010.1 hPa | 0 mm | - | 86 W/m² | - |
| 1777226709 | 20.56° C | 80% | 1009.9 hPa | 0 mm | - | 77 W/m² | - |
| 1777226404 | 21.67° C | 77% | 1010 hPa | 0 mm | - | 65 W/m² | - |
| 1777226100 | 22.22° C | 75% | 1010 hPa | 0 mm | - | 129 W/m² | - |
| 1777225796 | 21.67° C | 74% | 1009.9 hPa | 0 mm | - | 829 W/m² | - |
| 1777225493 | 21.67° C | 75% | 1009.7 hPa | 0 mm | - | 771 W/m² | - |
| 1777225191 | 21.67° C | 76% | 1010 hPa | 0 mm | - | 833 W/m² | - |
| 1777224886 | 21.67° C | 77% | 1009.9 hPa | 0 mm | - | 767 W/m² | - |
| 1777224583 | 21.11° C | 77% | 1010.1 hPa | 0 mm | - | 737 W/m² | - |
| 1777224278 | 21.67° C | 77% | 1010 hPa | 0 mm | - | 773 W/m² | - |
| 1777223975 | 21.67° C | 76% | 1010.3 hPa | 0 mm | - | 788 W/m² | - |
| 1777223672 | 21.67° C | 76% | 1010.2 hPa | 0 mm | - | 792 W/m² | - |
| 1777223368 | 21.11° C | 77% | 1010.3 hPa | 0 mm | - | 791 W/m² | - |
| 1777223067 | 21.11° C | 76% | 1010.4 hPa | 0 mm | - | 736 W/m² | - |
| 1777222763 | 21.11° C | 80% | 1010.3 hPa | 0 mm | - | 727 W/m² | - |
| 1777222461 | 20.56° C | 80% | 1010.3 hPa | 0 mm | - | 745 W/m² | - |
| 1777222158 | 20.56° C | 80% | 1010.3 hPa | 0 mm | - | 714 W/m² | - |
* Rain latest hour (hover to see other rain measurements)
** Current wind speed in m/s (hover to see current wind gust speed)